Quincy, IL

1:14 AM CDT on September 18, 2019 (GMT -0500)
Quincy Regional-Baldwin

Weather History for KUIN - July, 2019

Change the Weather History Date:

Thursday, July 25, 2019

  Actual Average Record
Temperature  
Mean Temperature 75 °F 76 °F  
Max Temperature 84 °F 86 °F 109 °F (1934)
Min Temperature 66 °F 66 °F 53 °F (1911)
Degree Days  
Heating Degree Days 0 0  
Month to date heating degree days 0  
Since 1 June heating degree days 16  
Since 1 July heating degree days 0  
Cooling Degree Days 10 11  
Month to date cooling degree days 275  
Year to date cooling degree days 588  
Since 1 June cooling degree days 502  
Growing Degree Days 25 (Base 50)    
Moisture  
Dew Point 61 °F    
Average Humidity 63    
Maximum Humidity 87    
Minimum Humidity 37    
Precipitation  
Precipitation 0.00 in 0.13 in 2.07 in (1948)
Month to date precipitation 3.32  
Year to date precipitation 21.40  
Sea Level Pressure  
Sea Level Pressure 30.14 in    
Wind  
Wind Speed 4 mph (SSE)    
Max Wind Speed 8 mph    
Max Gust Speed -    
Visibility 10 miles    
Events      
T = Trace of Precipitation, MM = Missing Value Source: NWS Daily Summary

Daily Weather History Graph

Daily Weather History Graph

Search for Another Location

Airport or City:

Astronomy

Jul. 25, 2019 Rise Set
Actual Time 5:56 AM CDT 8:25 PM CDT
Civil Twilight 5:25 AM CDT 8:56 PM CDT
Nautical Twilight 4:47 AM CDT 9:34 PM CDT
Astronomical Twilight 4:04 AM CDT 10:16 PM CDT
Moon 12:41 AM CDT (7/25) 2:07 PM CDT (7/25)
Length of Visible Light 15h 30m
Length of Day
14h 28m
Last Quarter, 44% of the Moon is Illuminated
Jul 25
Last Quarter
Jul 31
New
Aug 7
First Quarter
Aug 15
Full
Aug 23
Last Quarter

Hourly Weather History & Observations

Time (CDT) Temp. Heat Index Dew Point Humidity Pressure Visibility Wind Dir Wind Speed Gust Speed Precip Events Conditions
12:54 AM 69.1 °F - 62.1 °F 78% 30.12 in 10.0 mi SSE 3.5 mph - N/A   Clear
1:54 AM 69.1 °F - 61.0 °F 75% 30.12 in 10.0 mi South 3.5 mph - N/A   Clear
2:54 AM 68.0 °F - 61.0 °F 78% 30.12 in 10.0 mi SSE 3.5 mph - N/A   Clear
3:54 AM 69.1 °F - 61.0 °F 75% 30.13 in 10.0 mi Calm Calm - N/A   Clear
4:54 AM 66.9 °F - 61.0 °F 81% 30.14 in 10.0 mi Calm Calm - N/A   Clear
5:54 AM 66.0 °F - 61.0 °F 84% 30.15 in 10.0 mi SSE 4.6 mph - N/A   Clear
6:54 AM 66.0 °F - 62.1 °F 87% 30.16 in 10.0 mi SE 5.8 mph - N/A   Clear
7:54 AM 71.1 °F - 64.0 °F 78% 30.17 in 10.0 mi Calm Calm - N/A   Clear
8:54 AM 75.0 °F - 64.9 °F 71% 30.18 in 10.0 mi SE 5.8 mph - N/A   Clear
9:54 AM 78.1 °F - 62.1 °F 58% 30.17 in 10.0 mi SSE 6.9 mph - N/A   Clear
10:54 AM 80.1 °F 80.9 °F 60.1 °F 50% 30.17 in 10.0 mi SSE 8.1 mph - N/A   Clear
11:54 AM 82.0 °F 82.1 °F 59.0 °F 45% 30.17 in 10.0 mi Variable 4.6 mph - N/A   Clear
12:54 PM 82.9 °F 82.8 °F 59.0 °F 44% 30.16 in 10.0 mi SSE 6.9 mph - N/A   Scattered Clouds
1:54 PM 82.9 °F 82.6 °F 57.9 °F 42% 30.14 in 10.0 mi SSE 8.1 mph - N/A   Clear
2:54 PM 82.9 °F 82.8 °F 59.0 °F 44% 30.14 in 10.0 mi SSE 6.9 mph - N/A   Clear
3:54 PM 82.9 °F 82.4 °F 57.0 °F 41% 30.13 in 10.0 mi South 4.6 mph - N/A   Clear
4:54 PM 84.0 °F 82.9 °F 55.0 °F 37% 30.12 in 10.0 mi South 4.6 mph - N/A   Clear
5:54 PM 82.0 °F 82.0 °F 57.9 °F 44% 30.12 in 10.0 mi SSE 5.8 mph - N/A   Clear
6:54 PM 80.1 °F 80.9 °F 60.1 °F 50% 30.12 in 10.0 mi SE 5.8 mph - N/A   Clear
7:54 PM 77.0 °F - 63.0 °F 62% 30.12 in 10.0 mi SE 3.5 mph - N/A   Clear
8:54 PM 73.9 °F - 64.0 °F 71% 30.12 in 10.0 mi SE 4.6 mph - N/A   Clear
9:54 PM 72.0 °F - 63.0 °F 73% 30.13 in 10.0 mi SE 5.8 mph - N/A   Clear
10:54 PM 71.1 °F - 63.0 °F 75% 30.13 in 10.0 mi SE 4.6 mph - N/A   Clear
11:54 PM 70.0 °F - 63.0 °F 78% 30.14 in 10.0 mi SE 5.8 mph - N/A   Clear